Location: Fontevrault
(47.1823°N, 0.0493°E)
Time: 11:36:46
(UTC+00:00)

Cosmos 1300 - Pass Details

Date: 16 June 2021
Orbit: 509 x 513 km, 82.5° (Epoch: 27 July)

Event Time Altitude Azimuth Distance (km) Brightness Sun altitude
Rises 22:02:31 0° 352° (N) 2,639 7.7 -14.6°
Reaches altitude 10° 22:04:40 10° 354° (N) 1,747 6.5 -14.7°
Maximum altitude 22:08:30 73° 80° (E) 540 2.7 -15.0°
Enters shadow 22:10:17 30° 160° (SSE) 945 3.4 -15.2°
